Weather in Butakovo

Russia / Irkutsk Oblast     54°03′30″N   106°06′50″E
temp.,
°C
wind,
m/s
gust,
m/s
humid.,
%
clouds,
%
prec.,
mm/h
press.,
hPa
HPBL,
m
23 january, sat
sat2323:00−18ese0097100 0.0 100920
02:00−18sse1294100 0.0 101120
05:00−18n0194100 0.0 101320
08:00−17sw1192100 0.0 101620
11:00−12wnw1193100 0.1 101969
14:00−8wnw3685100 0.2 1022780
17:00−11nw3586100 0.0 1025182
20:00−16nnw2291100 0.0 102932
24 january, sun
sun2423:00−19nnw1292100 0.0 103220
02:00−20n1193100 0.0 103320
05:00−21n2291100 0.0 103520
08:00−22n1289100 0.0 103620
11:00−20nne1187100 0.0 103751
14:00−18ese0183100 0.0 1035253
17:00−20w0092100 0.0 103520
20:00−21n1193100 0.0 103620
25 january, mon
mon2523:00−22n2289100 0.0 103522
02:00−23nne1190100 0.0 103420
05:00−23n1191100 0.0 103320
08:00−24nnw1192100 0.0 103320
11:00−22nw1193100 0.0 1033139
14:00−19wnw1291100 0.1 1031368
17:00−20nw2493100 0.1 1032146
20:00−22nnw2492100 0.1 1033106
26 january, tue
tue2623:00−23nw2392100 0.0 103455
02:00−26nnw1294100 0.0 103625
05:00−29nw119899 0.0 103720
08:00−31nw129996 0.0 103819
11:00−28wnw019588 0.0 103970
14:00−24w138992 0.0 1039344
17:00−26nw229356 0.0 104022
20:00−31nnw229432 0.0 104219
27 january, wed
wed2723:00−33nnw129617 0.0 104419
02:00−34nnw129635 0.0 104519
05:00−36nnw119784 0.0 104619
08:00−37nw119790 0.0 104719
11:00−33wnw119041 0.0 104875
14:00−28wsw038429 0.0 1047361
17:00−30nw238735 0.0 104950
20:00−34nw229220 0.0 105220